Weather reports worldwide

Advertisment
Fürstenzell, Germany (10895): temperature & dewpoint: 29.06.2020 13:00:00 - 05.07.2020 13:00:00 (CEST)Fürstenzell, Germany (10895): temperature 5cm & temperature -5cm: 29.06.2020 13:00:00 - 05.07.2020 13:00:00 (CEST)Fürstenzell, Germany (10895): temperature -20cm & temperature -100cm: 29.06.2020 13:00:00 - 05.07.2020 13:00:00 (CEST)Fürstenzell, Germany (10895): wind speed & gusts: 29.06.2020 13:00:00 - 05.07.2020 13:00:00 (CEST)Fürstenzell, Germany (10895): wind direction: 29.06.2020 13:00:00 - 05.07.2020 13:00:00 (CEST)Fürstenzell, Germany (10895): reduced air pressure: 29.06.2020 13:00:00 - 05.07.2020 13:00:00 (CEST)Fürstenzell, Germany (10895): visibility: 29.06.2020 13:00:00 - 05.07.2020 13:00:00 (CEST)Fürstenzell, Germany (10895): sunshine duration: 29.06.2020 13:00:00 - 05.07.2020 13:00:00 (CEST)Fürstenzell, Germany (10895): precipitation: 29.06.2020 13:00:00 - 05.07.2020 13:00:00 (CEST)
Date & Time tt [°C] td [°C] tt 5cm [°C] tt -5cm [°C] tt -20cm [°C] tt -100cm [°C] ff [km/h] ff [kn] fx [km/h] fx [kn] dd ppp [hPa] vv [km] sd [min] rr [mm]
05.07.2020 13:00:00 - - - - - - - - - - - - - - -
05.07.2020 12:00:00 - - - - - - - - - - - - - - -
05.07.2020 11:00:00 - - - - - - - - - - - - - - -
05.07.2020 10:00:00 - - - - - - - - - - - - - - -
05.07.2020 09:00:00 - - - - - - - - - - - - - - -
05.07.2020 08:00:00 - - - - - - - - - - - - - - -
05.07.2020 07:00:00 - - - - - - - - - - - - - - -
05.07.2020 06:00:00 - - - - - - - - - - - - - - -
05.07.2020 05:00:00 - - - - - - - - - - - - - - -
05.07.2020 04:00:00 - - - - - - - - - - - - - - -
05.07.2020 03:00:00 - - - - - - - - - - - - - - -
05.07.2020 02:00:00 - - - - - - - - - - - - - - -
05.07.2020 01:00:00 - - - - - - - - - - - - - - -
05.07.2020 00:00:00 - - - - - - - - - - - - - - -
04.07.2020 23:00:00 - - - - - - - - - - - - - - -
04.07.2020 22:00:00 - - - - - - - - - - - - - - -
04.07.2020 21:00:00 - - - - - - - - - - - - - - -
04.07.2020 20:00:00 - - - - - - - - - - - - - - -
04.07.2020 19:00:00 - - - - - - - - - - - - - - -
04.07.2020 18:00:00 - - - - - - - - - - - - - - -
04.07.2020 17:00:00 - - - - - - - - - - - - - - -
04.07.2020 16:00:00 - - - - - - - - - - - - - - -
04.07.2020 15:00:00 - - - - - - - - - - - - - - -
04.07.2020 14:00:00 - - - - - - - - - - - - - - -
04.07.2020 13:00:00 - - - - - - - - - - - - - - -
04.07.2020 12:00:00 - - - - - - - - - - - - - - -
04.07.2020 11:00:00 - - - - - - - - - - - - - - -
04.07.2020 10:00:00 - - - - - - - - - - - - - - -
04.07.2020 09:00:00 - - - - - - - - - - - - - - -
04.07.2020 08:00:00 - - - - - - - - - - - - - - -
04.07.2020 07:00:00 - - - - - - - - - - - - - - -
04.07.2020 06:00:00 - - - - - - - - - - - - - - -
04.07.2020 05:00:00 - - - - - - - - - - - - - - -
04.07.2020 04:00:00 12,6 11,9 11,5 15,8 19,4 17,4 5 3 6 4 NE 1020,4 20 0 -
04.07.2020 03:00:00 14,5 12,0 12,0 16,4 19,8 17,4 2 1 4 2 WSW 1020,3 12 0 -
04.07.2020 02:00:00 14,8 12,2 12,1 16,6 20,1 17,4 3 2 5 3 W 1020,3 36 0 -
04.07.2020 01:00:00 14,6 12,1 11,7 17,0 20,5 17,3 4 2 11 6 NE 1020,1 36 0 -
04.07.2020 00:00:00 16,3 11,8 12,8 17,7 20,8 17,3 8 5 12 6 WSW 1019,5 37 0 -
03.07.2020 23:00:00 16,8 11,2 12,4 18,4 21,2 17,3 7 4 13 7 WSW 1019,2 38 0 -
03.07.2020 22:00:00 17,7 10,3 13,7 19,3 21,5 17,3 7 4 11 6 W 1018,8 42 1 -
03.07.2020 21:00:00 18,6 10,5 16,5 20,4 21,7 17,3 9 5 18 10 WSW 1018,2 38 60 -
03.07.2020 20:00:00 20,3 10,0 20,6 21,6 21,8 17,3 11 6 24 13 W 1017,3 41 48 0,0
03.07.2020 19:00:00 20,7 9,3 20,7 23,0 21,8 17,3 14 7 26 14 WNW 1016,9 48 57 0,0
03.07.2020 18:00:00 21,4 10,9 24,8 23,8 21,7 17,3 12 6 25 14 WNW 1016,9 41 45 0,0
03.07.2020 17:00:00 20,6 11,8 22,2 24,6 21,6 17,3 13 7 26 14 W 1017,0 51 40 0,0
03.07.2020 16:00:00 19,9 10,9 20,8 24,8 21,3 17,3 14 7 28 15 W 1017,3 43 32 0,0
03.07.2020 15:00:00 20,1 10,9 22,8 25,4 21,0 17,3 14 8 33 18 WNW 1017,5 59 43 0,0
03.07.2020 14:00:00 20,6 11,7 24,6 25,1 20,5 17,3 16 9 31 17 W 1017,3 52 49 0,0
03.07.2020 13:00:00 19,3 11,5 23,7 25,0 20,0 17,3 19 10 36 19 W 1017,8 59 59 0,0
03.07.2020 12:00:00 19,2 12,1 23,2 23,9 19,6 17,3 14 8 26 14 W 1017,8 43 57 0,0
03.07.2020 11:00:00 18,3 13,8 23,1 22,5 19,3 17,3 14 8 27 15 WNW 1017,6 35 57 0,0
03.07.2020 10:00:00 18,0 14,4 23,1 20,1 19,2 17,3 15 8 28 15 NW 1017,5 49 35 0,0
03.07.2020 09:00:00 15,8 14,0 17,3 18,1 19,2 17,3 16 8 27 14 WNW 1017,6 42 1 0,0
03.07.2020 08:00:00 15,1 13,5 15,0 17,4 19,4 17,3 21 11 30 16 W 1017,2 54 0 0,0
03.07.2020 07:00:00 15,2 14,3 14,7 17,2 19,6 17,3 12 7 20 11 W 1016,7 32 0 0,0
03.07.2020 06:00:00 15,1 15,1 14,9 17,3 19,8 17,3 7 4 16 9 SW 1016,2 10 0 0,0
03.07.2020 05:00:00 15,3 15,2 14,9 17,5 20,0 17,3 9 5 16 8 WSW 1015,7 21 0 0,0
03.07.2020 04:00:00 15,0 15,0 14,9 17,7 20,3 17,2 8 4 19 10 SSW 1015,6 12 0 0,0
03.07.2020 03:00:00 15,0 14,8 14,9 18,0 20,5 17,2 10 6 20 11 SSW 1015,4 28 0 0,0
03.07.2020 02:00:00 15,1 14,9 15,0 18,4 20,8 17,2 10 5 21 12 SW 1015,2 52 0 0,1
03.07.2020 01:00:00 15,6 15,6 15,7 18,9 21,0 17,2 10 5 18 10 SW 1014,8 18 0 1,3
03.07.2020 00:00:00 16,5 16,5 16,6 19,4 21,3 17,2 5 3 19 11 SW 1014,3 8 0 4,0
02.07.2020 23:00:00 17,0 17,0 17,0 20,0 21,6 17,2 11 6 24 13 W 1014,6 8 0 6,0
02.07.2020 22:00:00 17,6 16,6 17,5 20,8 21,8 17,2 6 3 11 6 SSW 1013,7 42 0 0,0
02.07.2020 21:00:00 17,9 16,7 17,8 21,6 22,0 17,2 6 4 11 6 SSW 1012,7 35 0 0,0
02.07.2020 20:00:00 18,5 16,5 18,8 22,9 22,0 17,2 6 3 11 6 SSW 1012,4 50 0 0,0
02.07.2020 19:00:00 19,8 15,8 21,4 24,1 21,9 17,2 4 2 10 6 WSW 1012,1 50 55 0,0
02.07.2020 18:00:00 18,8 15,2 22,4 23,8 21,9 17,1 8 4 19 10 NE 1012,2 67 53 0,0
02.07.2020 17:00:00 17,0 16,5 18,5 22,5 21,9 17,1 16 9 24 13 NE 1012,8 33 0 2,3
02.07.2020 16:00:00 16,1 14,5 15,7 24,9 21,6 17,1 21 11 50 27 WNW 1013,8 27 21 1,0
02.07.2020 15:00:00 22,4 17,1 26,4 26,4 21,2 17,1 5 3 14 8 S 1011,4 42 18 0,0
02.07.2020 14:00:00 21,6 16,7 25,9 24,7 20,9 17,1 7 4 14 8 S 1012,0 48 8 0,0
02.07.2020 13:00:00 21,0 16,6 23,7 23,6 20,7 17,1 5 3 14 7 SSE 1012,5 44 0 0,0
02.07.2020 12:00:00 20,9 16,0 24,4 23,0 20,4 17,1 4 2 12 7 SW 1012,7 44 1 0,0
02.07.2020 11:00:00 20,0 16,0 23,5 22,1 20,3 17,1 6 3 14 8 SSW 1012,8 62 3 0,0
02.07.2020 10:00:00 19,3 16,4 21,3 20,9 20,2 17,1 4 2 14 8 S 1012,8 40 5 0,0
02.07.2020 09:00:00 18,4 15,7 20,5 20,1 20,2 17,1 6 3 12 6 SSW 1012,8 48 1 0,0
02.07.2020 08:00:00 17,1 15,7 18,5 19,2 20,3 17,1 4 2 12 6 S 1012,7 39 13 0,0
02.07.2020 07:00:00 16,7 14,9 17,7 18,2 20,5 17,1 5 3 11 6 SSW 1012,8 37 49 0,0
02.07.2020 06:00:00 15,4 14,8 15,0 17,8 20,8 17,1 7 4 13 7 SSW 1012,4 28 16 0,0
02.07.2020 05:00:00 15,7 14,8 14,6 18,2 21,1 17,1 8 5 14 8 SW 1011,3 52 0 0,0
02.07.2020 04:00:00 16,3 15,0 15,2 18,8 21,4 17,1 7 4 12 7 SSW 1010,9 54 0 0,0
02.07.2020 03:00:00 16,8 15,1 15,6 19,3 21,8 17,1 5 3 9 5 SSW 1011,4 42 0 0,0
02.07.2020 02:00:00 16,6 15,1 14,8 19,5 22,1 17,1 2 1 12 7 NE 1011,5 45 0 0,0
02.07.2020 01:00:00 17,5 14,9 16,5 20,0 22,6 17,1 7 4 15 8 SSW 1011,3 56 0 0,0
02.07.2020 00:00:00 17,3 15,1 15,9 20,8 23,0 17,1 5 3 22 12 SE 1011,4 56 0 0,0
01.07.2020 23:00:00 18,3 14,9 17,9 21,6 23,4 17,1 16 9 23 13 SE 1010,1 75 0 0,0
01.07.2020 22:00:00 19,0 14,9 18,3 22,6 23,8 17,1 10 6 28 15 SW 1011,1 36 0 0,0
01.07.2020 21:00:00 19,1 15,1 18,9 24,1 24,1 17,1 13 7 48 26 SSW 1009,6 41 0 0,0
01.07.2020 20:00:00 23,6 16,5 23,3 26,7 24,1 17,1 10 5 39 21 SSW 1008,5 34 0 0,0
01.07.2020 19:00:00 26,3 17,0 26,1 28,4 24,0 17,1 2 1 10 5 S 1007,8 30 22 0,0
01.07.2020 18:00:00 27,5 16,2 32,0 30,0 23,6 17,1 4 2 16 9 S 1007,7 31 60 0,0
01.07.2020 17:00:00 27,5 16,6 33,5 30,5 23,1 17,1 5 3 16 9 ESE 1007,7 35 60 0,0
01.07.2020 16:00:00 - - - - - - - - - - - - - - -
01.07.2020 15:00:00 26,5 15,5 32,5 30,2 21,9 17,0 5 3 17 9 W 1008,7 35 54 0,0
01.07.2020 14:00:00 25,6 15,6 29,6 29,3 21,3 17,0 8 5 18 10 SE 1009,7 33 30 0,0
01.07.2020 13:00:00 25,3 15,6 29,2 29,2 20,5 17,0 5 3 13 7 SSW 1009,9 37 59 0,0
01.07.2020 12:00:00 - - - - - - - - - - - - - - -
01.07.2020 11:00:00 23,2 14,5 28,3 25,1 19,2 17,0 6 3 13 7 SW 1011,3 27 60 0,0
01.07.2020 10:00:00 21,1 15,3 25,5 22,6 18,8 17,0 6 4 13 7 SSW 1011,9 32 60 0,0
01.07.2020 09:00:00 20,7 14,8 23,9 20,2 18,7 17,0 4 2 14 7 SE 1012,0 23 60 0,0
01.07.2020 08:00:00 18,0 14,2 21,7 17,9 18,7 17,0 4 2 8 4 E 1012,5 33 60 0,0
01.07.2020 07:00:00 15,0 13,6 15,3 16,1 19,0 17,0 5 3 9 5 NE 1013,1 31 60 0,0
01.07.2020 06:00:00 13,6 13,0 12,8 15,8 19,3 17,0 5 3 10 5 NE 1013,1 22 29 0,0
01.07.2020 05:00:00 13,7 12,8 12,4 16,1 19,6 17,0 6 3 9 5 NE 1012,9 30 0 0,0
01.07.2020 04:00:00 14,1 13,2 12,5 16,6 19,9 17,0 6 4 10 6 NE 1012,7 45 0 0,0
01.07.2020 03:00:00 15,1 12,8 13,3 17,1 20,2 17,0 3 2 7 4 NNE 1012,6 57 0 0,0
01.07.2020 02:00:00 17,2 12,2 13,2 17,6 20,5 17,0 3 2 8 5 SW 1012,4 63 0 0,0
01.07.2020 01:00:00 18,0 12,2 14,6 18,0 20,8 17,0 4 2 9 5 S 1012,4 48 0 0,0
01.07.2020 00:00:00 18,6 11,4 14,5 18,6 21,2 17,0 5 3 9 5 NNE 1012,2 45 0 0,0
30.06.2020 23:00:00 18,7 11,6 15,6 19,3 21,5 17,0 6 3 13 7 N 1012,0 54 0 0,0
30.06.2020 22:00:00 19,7 11,6 17,5 20,2 21,8 17,0 10 5 16 9 NNW 1011,7 57 9 0,0
30.06.2020 21:00:00 20,3 12,8 18,5 21,7 21,9 17,0 8 5 15 8 NNW 1011,1 54 60 0,0
30.06.2020 20:00:00 22,6 12,8 23,2 23,0 22,0 17,0 8 5 15 8 NW 1010,6 57 60 0,0
30.06.2020 19:00:00 23,6 13,7 26,0 23,7 21,9 17,0 9 5 26 14 WNW 1010,3 60 45 0,0
30.06.2020 18:00:00 23,9 12,5 27,9 24,8 21,8 17,0 15 8 32 17 W 1010,5 67 38 0,0
30.06.2020 17:00:00 23,6 12,2 27,4 25,4 21,5 17,0 15 8 32 17 WSW 1010,8 58 45 0,0
30.06.2020 16:00:00 23,6 13,9 27,8 25,6 21,2 17,0 13 7 26 14 W 1011,0 59 56 0,0
30.06.2020 15:00:00 22,7 12,5 26,8 25,2 20,9 17,0 16 9 29 16 W 1011,5 69 37 0,0
30.06.2020 14:00:00 22,2 13,1 25,7 24,7 20,5 17,0 14 8 28 15 W 1012,2 75 26 0,0
30.06.2020 13:00:00 21,2 13,0 23,4 25,0 20,1 16,9 12 7 27 15 SW 1012,8 61 34 0,0
30.06.2020 12:00:00 21,6 12,8 26,6 24,8 19,5 16,9 11 6 24 13 SW 1013,2 57 48 0,0
30.06.2020 11:00:00 19,5 13,4 24,9 23,6 19,1 16,9 7 4 15 8 SW 1014,0 49 49 0,0
30.06.2020 10:00:00 18,3 12,7 22,8 21,7 18,8 16,9 6 4 14 7 WSW 1014,5 52 57 0,0
30.06.2020 09:00:00 17,0 13,6 19,9 19,6 18,6 16,9 8 5 14 7 SW 1015,0 36 58 0,0
30.06.2020 08:00:00 16,0 13,1 19,3 17,7 18,7 16,9 7 4 12 7 WSW 1014,9 42 60 0,0
30.06.2020 07:00:00 15,0 13,2 16,4 16,2 18,9 16,9 8 4 13 7 SW 1015,0 44 48 0,0
30.06.2020 06:00:00 13,5 13,0 12,9 16,0 19,1 16,9 6 3 10 6 SW 1015,0 22 1 0,0
30.06.2020 05:00:00 14,3 13,0 13,4 16,1 19,4 16,9 9 5 18 10 SW 1014,4 66 0 0,0
30.06.2020 04:00:00 14,3 13,2 13,0 16,3 19,7 16,9 9 5 16 8 SW 1014,2 72 0 0,0
30.06.2020 03:00:00 14,0 13,7 12,9 16,8 20,0 16,9 4 2 15 8 S 1014,2 35 0 0,0
30.06.2020 02:00:00 14,8 13,7 13,6 17,4 20,3 16,8 6 4 14 8 SSW 1014,0 63 0 0,0
30.06.2020 01:00:00 15,2 13,7 14,9 17,9 20,6 16,8 9 5 13 7 SSW 1014,1 63 0 0,0
30.06.2020 00:00:00 16,0 13,9 14,8 18,5 20,9 16,8 8 4 15 8 SW 1013,9 65 0 0,0
29.06.2020 23:00:00 16,9 14,4 15,4 19,5 21,1 16,8 6 4 11 6 SSW 1013,6 63 0 0,0
29.06.2020 22:00:00 17,8 14,7 17,3 20,3 21,3 16,8 6 3 13 7 SW 1013,5 68 5 0,0
29.06.2020 21:00:00 18,1 14,3 17,8 21,1 21,4 16,8 6 3 18 10 WSW 1012,8 75 18 0,0
29.06.2020 20:00:00 19,8 13,5 21,6 22,3 21,3 16,8 11 6 21 11 SW 1012,6 68 53 0,0
29.06.2020 19:00:00 20,2 13,0 22,5 23,2 21,1 16,7 14 8 24 13 WSW 1012,6 72 44 0,0
29.06.2020 18:00:00 20,2 14,5 23,9 23,9 20,8 16,7 12 7 24 13 W 1012,9 75 49 0,0
29.06.2020 17:00:00 19,6 14,1 23,8 23,8 20,4 16,7 14 8 23 12 W 1013,0 62 46 0,0
29.06.2020 16:00:00 18,8 15,1 24,4 23,0 20,1 16,7 14 7 26 14 WNW 1013,5 47 45 0,0
29.06.2020 15:00:00 17,8 15,2 23,7 21,2 20,0 16,7 14 7 24 13 WNW 1014,0 52 20 0,0
29.06.2020 14:00:00 15,7 14,9 16,9 19,2 20,0 16,7 8 4 15 8 SSW 1014,9 35 0 0,0
29.06.2020 13:00:00 15,2 15,0 15,8 18,6 20,1 16,7 8 4 14 8 SW 1015,0 26 0 0,0

tt = temperature
td = dewpoint
tt 5cm = temperature 5cm
tt -5cm = temperature -5cm
tt -20cm = temperature -20cm
tt -100cm = temperature -100cm
ff = wind speed
fx = gusts
dd = wind direction
ppp = reduced air pressure
vv = visibility
sd = sunshine duration
rr = precipitation

Next stations